Regional Weather Roundup
Issued by NWS Wakefield, VA

Home | Current Version | Previous Version | Graphics & Text | Print | Product List | Glossary On
Versions: 1 2 3 4 5 6 7 8 9 10 11 12 13 14 15 16 17 18 19 20 21 22 23 24 25 26 27 28 29 30 31 32 33 34 35 36 37 38 39 40 41 42 43 44 45 46 47 48 49 50
000
ASUS41 KAKQ 262010
RWRAKQ

REGIONAL WEATHER ROUNDUP
NATIONAL WEATHER SERVICE WAKEFIELD VA
300 PM EST WED NOV 26 2014

Note: "fair" indicates few or no clouds below 12,000 feet with no
significant weather and/or obstructions to visibility. * = Denotes
station may not report precipitation (e.g., rain,snow,etc.),
thunder or fog.

VAZ042-051-052>054-056-262100-
NORTHERN VIRGINIA

CITY           SKY/WX    TMP DP  RH WIND       PRES   REMARKS
WASH NATIONAL  LGT SNOW  37  32  81 NW18G24   29.92R
DULLES         SNOW      32  31  96 NW9       29.94R VSB 1/2
FORT BELVOIR   MIX PCPN  36  32  87 NW13      29.92R
QUANTICO       LGT SNOW  36  32  85 N14G23    29.93R FOG
FREDERICKSBRG* LGT RAIN  36  36 100 NW8       29.94R
STAFFORD*      LGT RAIN  34  34 100 NW9       29.97S
WARRENTON      LGT RAIN  35  35 100 NW7       29.94F
CULPEPER*      LGT SNOW  36  36 100 N6        29.95F
MANASSAS*      NOT AVBL
LEESBURG*      LGT SNOW  34  34 100 N7        29.95R
WINCHESTER     LGT SNOW  34  32  93 NW8       29.95S
FRONT ROYAL*   CLOUDY    32  32 100 CALM      29.96S
LURAY*         LGT SNOW  34  34 100 CALM      29.97S
$$

VAZ048-049-060>072-079>083-262100-
CENTRAL AND SOUTH CENTRAL VIRGINIA

CITY           SKY/WX    TMP DP  RH WIND       PRES   REMARKS
RICHMOND       DRIZZLE   39  36  87 NW22G29   29.92R FOG
CHESTERFIELD*  CLOUDY    37  25  60 NW16G23   29.94R
PETERSBURG*    DRIZZLE   41  39  93 NW12G20   29.93R
HANOVER        RAIN      35  34  96 NW16      29.94R FOG
TAPPAHANNOCK*  DRIZZLE   38  35  86 NW10G18   29.87R
QUINTON*       CLOUDY    38  37  93 NW10G21   29.88R
CHARLOTTSVILLE LGT RAIN  36  34  92 CALM      29.95S FOG
GORDONSVILLE*  CLOUDY    36  34  93 CALM      29.95R
ORANGE*        LGT RAIN  36  34  93 NW5       29.96S
LOUISA*        LGT RAIN  34  34 100 NW6       29.94R
BUMPASS*       CLOUDY    34  33  96 NW3       29.94R
FARMVILLE*     RAIN      39  39 100 NW6         N/A
CREWE*         CLOUDY    36  34  94 NW12      29.95R
FORT PICKETT*  CLOUDY    36  35  96 NW10G20   29.94R
CHASE CITY*    CLOUDY    39  39 100 NW8G16    29.96R
CLARKSVILLE*   CLOUDY    37  37 100 NW8       29.95R
SOUTH HILL*    CLOUDY    38  36  92 NW7       29.99R
LAWRENCEVILLE* CLOUDY    39  38  97 NW8G16    29.92R
$$

VAZ088>098-262100-
SOUTHEAST VIRGINIA

CITY           SKY/WX    TMP DP  RH WIND       PRES   REMARKS
NORFOLK        LGT RAIN  46  42  86 N17G31    29.74R
VIRGINIA BEACH LGT RAIN  47  43  86 N17       29.75R FOG
NORFOLK NAVAL  LGT RAIN  47  42  83 N18G28    29.80R
WEST POINT*    CLOUDY    43  39  88 NW14      29.86R
SALUDA*        CLOUDY    41  39  91 NW10G18   29.81R
NEWPORT NEWS   LGT RAIN  46  41  82 NW9       29.82R
LANGLEY AFB    LGT RAIN  44  44  99 N13G23    29.81R
FORT EUSTIS    RAIN      44  44 100 NW12G18   29.82R FOG
WILLIAMSBURG*  CLOUDY    45  45 100 NW16G22   29.85R
HR EXEC AP*    CLOUDY    43  39  87 NW3       29.83R
FRANKLIN*      CLOUDY    43  43 100 NW10G18   29.87R VSB 1
WAKEFIELD      LGT RAIN  41  38  89 VRB7G17   29.90R FOG
$$

VAZ020-022-025-037-045-262100-
WEST CENTRAL AND SOUTHWEST VIRGINIA

CITY           SKY/WX    TMP DP  RH WIND       PRES   REMARKS
STAUNTON*        N/A    N/A N/A N/A MISG        N/A
WAYNESBORO*    CLOUDY    32  32  99 CALM      29.95S
HOT SPRINGS VA   N/A    N/A N/A N/A MISG        N/A
LYNCHBURG      LGT RAIN  38  37  97 VRB3      29.96F
DANVILLE       CLOUDY    43  39  86 N7        29.97F
SOUTH BOSTON*  CLOUDY    40  38  93 NW6       29.98R
MARTINSVILLE   CLOUDY    44  42  92 CALM      29.99F
ROANOKE        CLOUDY    39  35  86 CALM      29.98S
BLACKSBURG     PTSUNNY   39  39 100 W6        29.96S
DUBLIN*        CLOUDY    40  37  91 W7        29.96S
MARION*        FOG       36  35  96 W6        29.98S VSB<1/4
HILLSVILLE*    CLOUDY    37  35  90 NW10      29.94S
RICHLANDS*     FOG       38  36  94 W5        29.96S VSB<1/4
WISE*          PTSUNNY   43  32  65 CALM      29.96S
ABINGDON*      CLOUDY    41  38  88 W6        29.98S
$$

MDZ021>025-VAZ099-100-262100-
SOUTHERN MARYLAND AND THE DELMARVA PENINSULA

CITY           SKY/WX    TMP DP  RH WIND       PRES   REMARKS
PATUXENT RIVER LGT RAIN  40  37  89 N20       29.80F
BAY BRIDGE APT RAIN      37  36  93 N17       29.84F
LEONARDTOWN    CLOUDY    37  36  93 NW8       29.82R
DOVER          LGT RAIN  38  38 100 N17       29.76F
GEORGETOWN     LGT RAIN  40  38  93 N10G21    29.75R
EASTON         LGT RAIN  39  39 100 N13G18    29.83F
CAMBRIDGE      CLOUDY    37  36  93 N13G21    29.76F
SALISBURY      RAIN      42  38  85 N13       29.73S FOG
OCEAN CITY     LGT RAIN  42  40  92 N15G24    29.72F
WALLOPS ISLAND LGT RAIN  42  40  92 N13G24    29.71F
ACCOMACK*      RAIN      43  37  81 N12G18    29.73F
$$

NCZ012>017-030>032-262100-
NORTH CENTRAL AND EASTERN NORTH CAROLINA

CITY           SKY/WX    TMP DP  RH WIND       PRES   REMARKS
ROANOKE RAPIDS DRIZZLE   41  41 100 NW7       29.92R
RALEIGH        CLOUDY    43  38  82 VRB7      29.97R
ELIZABETH CITY LGT RAIN  49  44  83 N17       29.75F
AHOSKIE*       RAIN      43  41  95 NW6       29.90R
EDENTON*       CLOUDY    46  44  95 NW14      29.83R
CURRITUCK*     RAIN      46  44  90 N14G20    29.74F
KILL DEVIL HLS DRIZZLE   48  47  99 NW6G18    29.73R
MANTEO         CLOUDY    47  46  95 NW14G30   29.74R
CAPE HATTERAS  LGT RAIN  50  50 100 NW9       29.75R
TARBORO*       CLOUDY    46  44  93 NW8G17    29.93R FOG
GOLDSBORO      LGT RAIN  46  46 100 NW13G22   29.92R
WASHINGTON     CLOUDY    45  44  95 W7        29.89R
GREENVILLE     DRIZZLE   45  45 100 NW9       29.93R
NEW BERN       CLOUDY    49  44  83 NW12G21   29.91R
WILMINGTON     CLOUDY    50  47  89 NW12      29.93R
$$

VAZ048-262100-
ELSEWHERE

CITY           SKY/WX    TMP DP  RH WIND       PRES   REMARKS
HARRISBURG PA  LGT SNOW  34  32  92 NW10      29.94S FOG
BALTIMORE      LGT SNOW  34  32  92 NW8       29.88F FOG
ANNAPOLIS      LGT RAIN  38  35  89 N15       29.85F
ANDREWS AFB    MIX PCPN  34  33  95 NW16      29.88R WCI  24
PHILADELPHIA   LGT RAIN  37  33  85 N17G28    29.84F
WILDWOOD NJ*   CLOUDY    39  36  87 N16G25    29.71F
HENDERSON NC   LGT RAIN  40  37  91 NW8       29.95R
GREENSBORO     PTSUNNY   43  39  86 CALM      29.97R
ROCKY MOUNT    CLOUDY    45  42  89 NW12G20   29.94R
$$

VAZ100-262100-
MARINE

STATION/POSITION TIME  TEMP    WIND        PRES    WAVE   SWELL
                       AIR SEA DIR/SP/G            HT/PER HT/PER
                 (UTC) (F)     (DEG/KT/KT) (MB)    (FT/S) (FT/S)
CAPE MAY NJ      2000   40 50   10/  8/ 15 1006.1F
LEWES DE         2000   40 48   10/ 23/ 31 1007.3R
15NM E FENWICK I 2000   46 55              1004.0F  11/ 7
OCEAN-CITY-INLET 2000   42 50   30/ 15/ 24 1005.4R
WACHAPREAGUE VA  2000   42 51  350/  8/ 13 1006.5R
THOMAS POINT MD  2000   38 47  350/ 21/ 23 1011.0F
GOOSES REEF MD   2000   40      20/ 23/ 31 1009.4R
COVE POINT MD    2000   38      10/ 22/ 27 1009.1R
SOLOMONS ISLAND  2000      49                N/A
BISHOPS HEAD MD  2000   39 46  360/ 14/ 19 1007.0S
PINEY POINT MD   2000          360/ 16/ 19   N/A
POTOMAC MD       2000   41      10/ 17/ 23 1006.9F
CAMBRIDGE MD     2000   38 45   10/ 15/ 18 1007.8F
LEWISETTA VA     2000   41 49  350/ 11/ 16 1009.4R
RAPPAHANNOCK LGT 2000          360/ 28/ 32 1007.4R
STINGRAY PT      2000   44      10/ 21/ 27 1008.7R
YORK RVR RNG VA  2000   44      20/ 21/ 24 1006.8F
YORKTOWN VA      2000   44 51  360/ 11/ 12 1008.4R
JAMESTOWN VA     2000   43     340/ 14/ 17   N/A
DOMINION TERM VA 2000   44      80/  2/  7 1008.2R
KIPTOPEKE VA     2000      56   20/ 13/ 21   N/A
CHES BAY BRIDGE  2000   44 53  350/ 29/ 32 1006.6
CAPE HENRY VA    2000   45     360/ 25/ 29 1005.3F
CHESAPEAKE LGHT  1900   46     360/ 28/ 32 1006.2R
WILLOUBY STN VA  2000   45     360/ 17/ 19 1006.4R
S CRANEY ISL VA  2000          330/ 14/ 19 1007.8F
CAPE HENRY BUOY  2000      56                N/A     9/ 8   2/11
1ST LANDING BUOY 2000   47      10/ 23/ 29 1006.8F
CAPE CHARLES BUO 2000      55                N/A     8/ 8   5/ 8
64NM E OF VA BCH 2000   57 64  360/ 23/ 29 1001.8F  11/ 8   7/ 9
DUCK PIER NC     2000   49 57  340/ 27/ 32 1004.2F
44100 DUCK FRF   2000      59                N/A    10/ 8   2/11
44056 DUCK FRF   2000      58                N/A     9/ 8   2/11
OREGON INLET NC  2000   50 59  310/ 15/ 23 1006.4R
HATTERAS NC      2000   52 63  330/ 15/ 18 1007.9R
DIAMOND SHLS NC  2000   60     280/ 16/ 21 1006.7R  12/ 9   8/ 9
CAPE LOOKOUT NC  1900   50     320/ 13/ 15 1008.5R
$$



USA.gov is the U.S. government's official web portal to all federal, state and local government web resources and services.